FW6620 Weather Reports


time (UTC)temp
C
wind
direction
speed
KPH
gust
KPH
rain 1hr
cm
rain 24hr
cm
rain mn
cm
humidity
%
barometer
mb
20260906111046 26 0 0.0 0.0 0.00 0.00 0.00 83 1012.8
20260906110546 26 0 0.0 0.0 0.00 0.00 0.00 83 1012.7
20260906110055 26 0 0.0 0.0 0.00 0.00 0.00 83 1012.8
20260906105546 26 0 0.0 0.0 0.00 0.00 0.00 82 1012.8
20260906105046 27 0 0.0 0.0 0.00 0.00 0.00 82 1012.7
20260906104557 27 0 0.0 0.0 0.00 0.00 0.00 82 1012.7
20260906104048 27 0 0.0 0.0 0.00 0.00 0.00 82 1012.8
20260906103547 27 0 0.0 0.0 0.00 0.00 0.00 82 1012.8
20260906103109 27 0 0.0 0.0 0.00 0.00 0.00 82 1012.8
20260906102548 27 0 0.0 0.0 0.00 0.00 0.00 82 1012.7
20260906102047 27 0 0.0 0.0 0.00 0.00 0.00 81 1012.7
20260906101556 27 0 0.0 0.0 0.00 0.00 0.00 81 1012.7
20260906101047 27 0 0.0 1.6 0.00 0.00 0.00 81 1012.7
20260906100546 27 0 0.0 1.6 0.00 0.00 0.00 81 1012.7
20260906100105 27 0 0.0 0.0 0.00 0.00 0.00 81 1012.5
20260906095547 27 0 0.0 0.0 0.00 0.00 0.00 82 1012.6
20260906095049 27 0 0.0 0.0 0.00 0.00 0.00 81 1012.7
20260906094556 27 0 0.0 0.0 0.00 0.00 0.00 81 1012.8
20260906094046 27 0 0.0 1.6 0.00 0.00 0.00 81 1012.8
20260906093548 27 0 0.0 1.6 0.00 0.00 0.00 80 1012.8
20260906093100 27 0 0.0 0.0 0.00 0.00 0.00 80 1012.7
20260906092548 27 0 0.0 0.0 0.00 0.00 0.00 80 1012.7
20260906092047 27 0 0.0 0.0 0.00 0.00 0.00 80 1012.7
20260906091555 27 0 0.0 0.0 0.00 0.00 0.00 79 1012.7
20260906091046 27 0 0.0 0.0 0.00 0.00 0.00 79 1012.6
20260906090550 27 0 0.0 0.0 0.00 0.00 0.00 80 1012.7
20260906090117 27 0 0.0 0.0 0.00 0.00 0.00 79 1012.7
20260906085545 27 0 0.0 3.2 0.00 0.00 0.00 80 1012.7
20260906085046 27 0 0.0 3.2 0.00 0.00 0.00 79 1012.6
20260906084600 27 92 0.0 4.8 0.00 0.00 0.00 79 1012.7
20260906084047 27 92 0.0 4.8 0.00 0.00 0.00 78 1012.6
20260906083546 27 90 0.0 0.0 0.00 0.00 0.00 79 1012.6
20260906083056 27 0 0.0 0.0 0.00 0.00 0.00 78 1012.7
20260906082547 28 0 0.0 0.0 0.00 0.00 0.00 79 1012.7
20260906082046 28 0 0.0 3.2 0.00 0.00 0.00 78 1012.8
20260906081558 28 0 0.0 3.2 0.00 0.00 0.00 79 1012.7
20260906081046 28 91 0.0 1.6 0.00 0.00 0.00 77 1012.8
20260906080546 28 0 0.0 6.4 0.00 0.00 0.00 78 1012.9
20260906080110 28 0 0.0 6.4 0.00 0.00 0.00 77 1013.0
20260906075549 28 0 0.0 4.8 0.00 0.00 0.00 77 1013.0
20260906075046 28 0 0.0 3.2 0.00 0.00 0.00 77 1013.0
20260906074609 28 0 0.0 1.6 0.00 0.00 0.00 76 1013.1
20260906074045 28 0 0.0 3.2 0.00 0.00 0.00 76 1013.2
20260906073546 28 0 0.0 3.2 0.00 0.00 0.00 76 1013.3
20260906073110 28 0 0.0 1.6 0.00 0.00 0.00 76 1013.3
20260906072546 28 0 0.0 3.2 0.00 0.00 0.00 76 1013.4
20260906072047 28 0 0.0 3.2 0.00 0.00 0.00 75 1013.4
20260906071556 28 0 0.0 3.2 0.00 0.00 0.00 75 1013.4
20260906071046 28 0 0.0 3.2 0.00 0.00 0.00 75 1013.4
20260906070545 28 0 0.0 4.8 0.00 0.00 0.00 75 1013.4
20260906070054 28 90 0.0 4.8 0.00 0.00 0.00 74 1013.6
20260906065547 28 90 0.0 3.2 0.00 0.00 0.00 74 1013.6
20260906065045 28 0 0.0 4.8 0.00 0.00 0.00 74 1013.6
20260906064559 29 0 0.0 4.8 0.00 0.00 0.00 74 1013.5
20260906064046 29 89 0.0 4.8 0.00 0.00 0.00 74 1013.6
20260906063545 29 0 0.0 6.4 0.00 0.00 0.00 74 1013.8
20260906063103 29 0 0.0 6.4 0.00 0.00 0.00 73 1013.8
20260906062546 29 0 0.0 6.4 0.00 0.00 0.00 73 1013.7
20260906062046 29 0 0.0 9.7 0.00 0.00 0.00 73 1013.8
20260906061556 29 0 1.6 9.7 0.00 0.00 0.00 73 1013.8
20260906061050 29 90 0.0 11.3 0.00 0.00 0.00 73 1014.0
20260906060546 29 91 0.0 11.3 0.00 0.00 0.00 72 1013.9
20260906060105 29 101 1.6 6.4 0.00 0.00 0.00 72 1014.0
20260906055546 30 89 0.0 6.4 0.00 0.00 0.00 72 1013.8
20260906055047 30 0 0.0 8.0 0.00 0.00 0.00 72 1013.8
20260906054600 30 0 0.0 8.0 0.00 0.00 0.00 72 1013.9
20260906054047 30 0 0.0 8.0 0.00 0.00 0.00 72 1013.7
20260906053546 30 87 0.0 8.0 0.00 0.00 0.00 72 1013.6
20260906053059 30 91 1.6 8.0 0.00 0.00 0.00 71 1013.6
20260906052546 30 96 1.6 4.8 0.00 0.00 0.00 71 1013.7
20260906052047 30 0 0.0 4.8 0.00 0.00 0.00 71 1013.6
20260906051603 30 0 0.0 6.4 0.00 0.00 0.00 71 1013.8
20260906051046 30 0 0.0 6.4 0.00 0.00 0.00 70 1013.7
20260906050547 30 97 0.0 6.4 0.00 0.00 0.00 70 1013.8
20260906050106 30 97 0.0 11.3 0.00 0.00 0.00 70 1013.8
20260906045546 30 95 1.6 11.3 0.00 0.00 0.00 70 1013.7
20260906045046 30 0 0.0 6.4 0.00 0.00 0.00 70 1013.8
20260906044559 30 0 0.0 8.0 0.00 0.00 0.00 70 1013.7
20260906044049 30 0 0.0 8.0 0.00 0.00 0.00 69 1013.8
20260906043546 30 116 1.6 8.0 0.00 0.00 0.00 69 1013.8
20260906043101 30 96 0.0 6.4 0.00 0.00 0.00 69 1013.9
20260906042546 30 0 0.0 8.0 0.00 0.00 0.00 69 1013.8
20260906042046 30 90 0.0 8.0 0.00 0.00 0.00 68 1013.8
20260906041602 31 0 0.0 6.4 0.00 0.00 0.00 68 1013.8
20260906041046 31 92 0.0 4.8 0.00 0.00 0.00 68 1013.8
20260906040546 31 91 0.0 8.0 0.00 0.00 0.00 68 1013.7
20260906040104 31 91 0.0 8.0 0.00 0.00 0.00 67 1013.7
20260906035548 31 0 0.0 4.8 0.00 0.00 0.00 67 1013.6
20260906035046 31 95 1.6 4.8 0.00 0.00 0.00 67 1013.7
20260906034629 31 0 0.0 4.8 0.00 0.00 0.00 66 1013.8
20260906034045 31 93 0.0 8.0 0.00 0.00 0.00 66 1013.8
20260906033546 31 0 0.0 8.0 0.00 0.00 0.00 66 1013.8
20260906033058 31 0 0.0 8.0 0.00 0.00 0.00 65 1013.7
20260906032546 31 100 0.0 8.0 0.00 0.00 0.00 65 1013.6
20260906032046 31 0 1.6 8.0 0.00 0.00 0.00 64 1013.5
20260906031605 31 99 0.0 6.4 0.00 0.00 0.00 63 1013.4
20260906031046 31 0 1.6 4.8 0.00 0.00 0.00 63 1013.4
20260906030546 31 97 0.0 4.8 0.00 0.00 0.00 62 1013.2
20260906030059 32 97 0.0 4.8 0.00 0.00 0.00 61 1013.3
20260906025546 32 0 0.0 3.2 0.00 0.00 0.00 61 1013.2
20260906025047 32 0 0.0 4.8 0.00 0.00 0.00 60 1013.0
20260906024558 32 0 0.0 4.8 0.00 0.00 0.00 60 1012.7
20260906024048 32 0 0.0 8.0 0.00 0.00 0.00 60 1012.5
20260906023546 32 95 1.6 8.0 0.00 0.00 0.00 60 1012.3
20260906023101 32 118 1.6 8.0 0.00 0.00 0.00 60 1012.3
20260906022547 32 0 0.0 6.4 0.00 0.00 0.00 60 1012.2
20260906022047 32 0 0.0 3.2 0.00 0.00 0.00 59 1012.0
20260906021601 32 0 0.0 6.4 0.00 0.00 0.00 60 1011.9
20260906021051 32 0 0.0 6.4 0.00 0.00 0.00 59 1011.8
20260906020546 32 102 0.0 6.4 0.00 0.00 0.00 59 1011.6
20260906020105 32 0 0.0 6.4 0.00 0.00 0.00 58 1011.6
20260906015546 32 101 0.0 6.4 0.00 0.00 0.00 58 1011.6
20260906015046 32 0 0.0 3.2 0.00 0.00 0.00 58 1011.6
20260906014604 32 0 0.0 3.2 0.00 0.00 0.00 57 1011.6
20260906014045 32 0 0.0 3.2 0.00 0.00 0.00 57 1011.5
20260906013548 32 0 0.0 3.2 0.00 0.00 0.00 56 1011.5
20260906013107 33 0 0.0 3.2 0.00 0.00 0.00 56 1011.5
20260906012545 33 0 0.0 3.2 0.00 0.00 0.00 56 1011.5
20260906012047 33 104 0.0 3.2 0.00 0.00 0.00 56 1011.4
20260906011602 33 0 0.0 3.2 0.00 0.00 0.00 55 1011.4
20260906011045 33 0 0.0 6.4 0.00 0.00 0.00 55 1011.3
20260906010545 33 0 0.0 6.4 0.00 0.00 0.00 54 1011.4
20260906010100 33 0 1.6 6.4 0.00 0.00 0.00 53 1011.3
20260906005546 34 189 1.6 4.8 0.00 0.00 0.00 53 1011.2
20260906005046 34 0 1.6 9.7 0.00 0.00 0.00 52 1011.3
20260906004605 35 0 1.6 9.7 0.00 0.00 0.00 51 1011.1
20260906004046 35 115 1.6 6.4 0.00 0.00 0.00 50 1011.1
20260906003546 35 0 0.0 6.4 0.00 0.00 0.00 49 1011.0
20260906003101 35 105 1.6 6.4 0.00 0.00 0.00 48 1011.0
20260906002547 35 104 0.0 4.8 0.00 0.00 0.00 47 1010.9
20260906002050 35 115 0.0 4.8 0.00 0.00 0.00 46 1010.9
20260906001559 35 0 0.0 4.8 0.00 0.00 0.00 47 1010.8
20260906001049 35 112 0.0 3.2 0.00 0.00 0.00 47 1010.9
20260906000546 35 0 0.0 3.2 0.00 0.00 0.00 46 1010.8
20260906000106 36 0 0.0 3.2 0.00 0.00 0.00 46 1010.8
20260905235546 36 0 0.0 3.2 0.00 0.00 0.00 46 1010.9
20260905235045 36 0 0.0 4.8 0.00 0.00 0.00 46 1010.8
20260905234610 36 0 0.0 4.8 0.00 0.00 0.00 45 1010.7
20260905234046 36 0 0.0 4.8 0.00 0.00 0.00 45 1010.8
20260905233546 36 0 0.0 3.2 0.00 0.00 0.00 45 1010.7
20260905233101 36 92 0.0 1.6 0.00 0.00 0.00 45 1010.7
20260905232545 36 92 0.0 4.8 0.00 0.00 0.00 44 1010.6
20260905232047 36 0 1.6 4.8 0.00 0.00 0.00 44 1010.7
20260905231604 36 91 0.0 3.2 0.00 0.00 0.00 44 1010.7
20260905231046 36 0 0.0 3.2 0.00 0.00 0.00 45 1010.7
20260905230546 36 0 0.0 6.4 0.00 0.00 0.00 45 1010.7
20260905230109 36 0 0.0 6.4 0.00 0.00 0.00 45 1010.7
20260905225547 36 90 0.0 6.4 0.00 0.00 0.00 44 1010.7
20260905225046 36 0 0.0 6.4 0.00 0.00 0.00 44 1010.8
20260905224612 36 0 0.0 3.2 0.00 0.00 0.00 44 1010.7
20260905224046 36 90 0.0 3.2 0.00 0.00 0.00 43 1010.7
20260905223545 36 0 0.0 3.2 0.00 0.00 0.00 43 1010.7
20260905223057 37 0 0.0 3.2 0.00 0.00 0.00 42 1010.7
20260905222549 36 89 0.0 6.4 0.00 0.00 0.00 43 1010.7
20260905222046 37 89 0.0 6.4 0.00 0.00 0.00 42 1010.7
20260905221556 37 0 0.0 4.8 0.00 0.00 0.00 43 1010.8
20260905221048 36 0 0.0 4.8 0.00 0.00 0.00 41 1010.9
20260905220546 36 91 0.0 4.8 0.00 0.00 0.00 41 1010.9
20260905220118 37 0 0.0 4.8 0.00 0.00 0.00 42 1011.1
20260905215546 37 68 0.0 3.2 0.00 0.00 0.00 41 1011.0
20260905215045 37 0 0.0 3.2 0.00 0.00 0.00 41 1011.0
20260905214558 37 0 0.0 4.8 0.00 0.00 0.00 42 1011.0
20260905214045 37 0 0.0 6.4 0.00 0.00 0.00 41 1011.1
20260905213545 37 68 1.6 6.4 0.00 0.00 0.00 41 1011.0
20260905213057 37 0 1.6 4.8 0.00 0.00 0.00 42 1011.0
20260905212545 37 65 0.0 4.8 0.00 0.00 0.00 41 1011.0
20260905212049 37 0 1.6 4.8 0.00 0.00 0.00 41 1011.1
20260905211554 37 0 0.0 6.4 0.00 0.00 0.00 41 1011.2
20260905211045 37 0 0.0 6.4 0.00 0.00 0.00 44 1011.3
20260905210545 37 65 0.0 4.8 0.00 0.00 0.00 43 1011.3
20260905210108 37 61 1.6 4.8 0.00 0.00 0.00 43 1011.3
20260905205551 37 61 0.0 4.8 0.00 0.00 0.00 44 1011.3
20260905205046 37 0 0.0 3.2 0.00 0.00 0.00 44 1011.6
20260905204557 36 62 1.6 4.8 0.00 0.00 0.00 44 1011.7
20260905204045 36 0 0.0 4.8 0.00 0.00 0.00 45 1011.7
20260905203549 36 62 0.0 6.4 0.00 0.00 0.00 45 1011.8
20260905203108 36 62 0.0 6.4 0.00 0.00 0.00 45 1011.9
20260905202545 36 60 0.0 4.8 0.00 0.00 0.00 45 1012.0
20260905202049 36 60 0.0 4.8 0.00 0.00 0.00 45 1012.2
20260905201554 36 0 0.0 3.2 0.00 0.00 0.00 44 1012.2
20260905201045 36 0 0.0 4.8 0.00 0.00 0.00 45 1012.3
20260905200546 36 60 0.0 6.4 0.00 0.00 0.00 44 1012.4
20260905200105 36 0 0.0 9.7 0.00 0.00 0.00 46 1012.5
20260905195548 36 0 1.6 9.7 0.00 0.00 0.00 46 1012.6
20260905195047 36 58 1.6 9.7 0.00 0.00 0.00 46 1012.7
20260905194557 36 68 0.0 6.4 0.00 0.00 0.00 48 1012.5
20260905194048 36 0 0.0 6.4 0.00 0.00 0.00 47 1012.6
20260905193551 36 64 0.0 6.4 0.00 0.00 0.00 47 1012.7
20260905193054 36 64 1.6 6.4 0.00 0.00 0.00 46 1012.9
20260905192551 36 0 0.0 4.8 0.00 0.00 0.00 48 1013.0
20260905192049 36 0 0.0 9.7 0.00 0.00 0.00 47 1013.0
20260905191609 36 0 1.6 9.7 0.00 0.00 0.00 47 1013.1
20260905191048 36 62 1.6 9.7 0.00 0.00 0.00 47 1013.2
20260905190547 35 0 0.0 6.4 0.00 0.00 0.00 48 1013.2
20260905185547 35 72 1.6 6.4 0.00 0.00 0.00 50 1013.5
20260905185047 35 0 0.0 4.8 0.00 0.00 0.00 48 1013.5
20260905184602 35 70 0.0 6.4 0.00 0.00 0.00 52 1013.7
20260905184047 35 0 0.0 6.4 0.00 0.00 0.00 50 1013.8
20260905183549 35 72 1.6 6.4 0.00 0.00 0.00 50 1013.8
20260905183057 34 61 0.0 6.4 0.00 0.00 0.00 56 1013.8
20260905182548 34 0 0.0 9.7 0.00 0.00 0.00 53 1014.0
20260905182047 34 61 1.6 9.7 0.00 0.00 0.00 54 1014.1
20260905181606 34 59 0.0 9.7 0.00 0.00 0.00 54 1014.2
20260905181048 34 0 1.6 9.7 0.00 0.00 0.00 55 1014.3
20260905180548 34 0 0.0 4.8 0.00 0.00 0.00 55 1014.3
20260905180059 34 0 0.0 9.7 0.00 0.00 0.00 56 1014.5
20260905175549 33 58 0.0 9.7 0.00 0.00 0.00 56 1014.6
20260905175048 33 67 1.6 9.7 0.00 0.00 0.00 57 1014.7
20260905174601 33 0 0.0 9.7 0.00 0.00 0.00 57 1014.7
20260905174047 33 62 1.6 6.4 0.00 0.00 0.00 57 1014.9
20260905173548 33 0 0.0 11.3 0.00 0.00 0.00 58 1015.0
20260905173055 33 66 0.0 11.3 0.00 0.00 0.00 63 1015.0
20260905172548 33 0 1.6 11.3 0.00 0.00 0.00 60 1015.1
20260905172048 33 0 1.6 9.7 0.00 0.00 0.00 62 1015.2
20260905171615 33 62 1.6 9.7 0.00 0.00 0.00 61 1015.3
20260905171048 32 56 0.0 6.4 0.00 0.00 0.00 63 1015.3
20260905170547 32 66 0.0 9.7 0.00 0.00 0.00 63 1015.4
20260905170106 32 55 3.2 9.7 0.00 0.00 0.00 63 1015.3
20260905165547 32 56 1.6 6.4 0.00 0.00 0.00 63 1015.4
20260905165045 32 61 0.0 4.8 0.00 0.00 0.00 66 1015.4
20260905164602 32 0 0.0 6.4 0.00 0.00 0.00 65 1015.5
20260905164045 31 0 1.6 9.7 0.00 0.00 0.00 67 1015.4
20260905163545 31 61 1.6 9.7 0.00 0.00 0.00 67 1015.5
20260905163102 31 0 1.6 6.4 0.00 0.00 0.00 68 1015.6
20260905162546 31 55 0.0 3.2 0.00 0.00 0.00 70 1015.5
20260905162046 30 55 0.0 11.3 0.00 0.00 0.00 70 1015.5
20260905161604 30 0 1.6 11.3 0.00 0.00 0.00 70 1015.5
20260905161046 30 62 0.0 9.7 0.00 0.00 0.00 71 1015.6
20260905160544 30 74 0.0 9.7 0.00 0.00 0.00 72 1015.6
20260905160108 30 0 0.0 11.3 0.00 0.00 0.00 72 1015.5
20260905155545 30 0 0.0 11.3 0.00 0.00 0.00 75 1015.4
20260905155045 30 59 4.8 11.3 0.00 0.00 0.00 74 1015.5
20260905154632 30 0 0.0 9.7 0.00 0.00 0.00 75 1015.5
20260905154046 30 68 3.2 9.7 0.00 0.00 0.00 75 1015.5
20260905153549 29 65 1.6 9.7 0.00 0.00 0.00 76 1015.4
20260905153055 29 0 0.0 6.4 0.00 0.00 0.00 77 1015.5
20260905152546 29 0 0.0 6.4 0.00 0.00 0.00 78 1015.5
20260905152045 28 0 1.6 9.7 0.00 0.00 0.00 79 1015.5
20260905151601 28 0 0.0 9.7 0.00 0.00 0.00 80 1015.6
20260905151044 28 59 0.0 6.4 0.00 0.00 0.00 82 1015.5
20260905150544 28 56 1.6 6.4 0.00 0.00 0.00 82 1015.7
20260905150106 28 0 0.0 4.8 0.00 0.00 0.00 83 1015.7
20260905145546 28 62 0.0 4.8 0.00 0.00 0.00 83 1015.5
20260905145045 28 62 0.0 3.2 0.00 0.00 0.00 84 1015.4
20260905144556 27 0 0.0 3.2 0.00 0.00 0.00 86 1015.4
20260905144045 27 0 0.0 4.8 0.00 0.00 0.00 87 1015.4
20260905143545 27 0 0.0 4.8 0.00 0.00 0.00 88 1015.4
20260905143104 27 62 0.0 3.2 0.00 0.00 0.00 89 1015.4
20260905142545 27 0 0.0 3.2 0.00 0.00 0.00 90 1015.4
20260905142045 26 0 0.0 3.2 0.00 0.00 0.00 90 1015.4
20260905141600 26 0 0.0 3.2 0.00 0.00 0.00 91 1015.4
20260905141045 26 0 0.0 3.2 0.00 0.00 0.00 91 1015.3
20260905140545 26 0 0.0 1.6 0.00 0.00 0.00 91 1015.3
20260905140057 26 0 0.0 1.6 0.00 0.00 0.00 91 1015.3
20260905135545 26 0 0.0 1.6 0.00 0.00 0.00 92 1015.3
20260905135046 26 0 0.0 3.2 0.00 0.00 0.00 92 1015.3
20260905134603 26 0 0.0 3.2 0.00 0.00 0.00 92 1015.1
20260905134047 26 63 0.0 3.2 0.00 0.00 0.00 92 1015.1
20260905133549 26 0 0.0 3.2 0.00 0.00 0.00 92 1015.1
20260905133102 26 0 0.0 4.8 0.00 0.00 0.00 93 1015.1
20260905132549 26 0 0.0 4.8 0.00 0.00 0.00 93 1015.1
20260905132048 25 0 0.0 0.0 0.00 0.00 0.00 93 1015.0
20260905131602 25 0 0.0 0.0 0.00 0.00 0.00 93 1015.0
20260905131048 25 0 0.0 0.0 0.00 0.00 0.00 92 1014.9
20260905130553 25 0 0.0 0.0 0.00 0.00 0.00 91 1014.9
20260905130059 25 0 0.0 0.0 0.00 0.00 0.00 91 1014.9
20260905125549 25 0 0.0 0.0 0.00 0.00 0.00 91 1014.7
20260905125047 25 0 0.0 0.0 0.00 0.00 0.00 91 1014.6
20260905124558 25 0 0.0 0.0 0.00 0.00 0.00 91 1014.5
20260905124049 25 0 0.0 0.0 0.00 0.00 0.00 91 1014.5
20260905123547 25 0 0.0 0.0 0.00 0.00 0.00 92 1014.5
20260905123105 25 0 0.0 0.0 0.00 0.00 0.00 92 1014.3
20260905122548 25 0 0.0 0.0 0.00 0.00 0.00 92 1014.4
20260905122047 25 0 0.0 0.0 0.00 0.00 0.00 91 1014.3
20260905121559 25 0 0.0 0.0 0.00 0.00 0.00 91 1014.5
20260905121048 25 0 0.0 0.0 0.00 0.00 0.00 91 1014.5
20260905120548 25 0 0.0 0.0 0.00 0.00 0.00 91 1014.3
20260905120057 25 0 0.0 0.0 0.00 0.00 0.00 91 1014.4
20260905115547 25 0 0.0 0.0 0.00 0.00 0.00 91 1014.2
20260905115047 24 0 0.0 0.0 0.00 0.00 0.00 91 1014.2
20260905114606 25 0 0.0 0.0 0.00 0.00 0.00 92 1014.2
20260905114047 24 0 0.0 0.0 0.00 0.00 0.00 92 1014.1
20260905113548 24 0 0.0 0.0 0.00 0.00 0.00 92 1014.2
20260905113101 24 0 0.0 0.0 0.00 0.00 0.00 91 1014.2
20260905112548 25 0 0.0 0.0 0.00 0.00 0.00 91 1014.2
20260905112046 25 0 0.0 0.0 0.00 0.00 0.00 91 1014.1
20260905111627 25 0 0.0 0.0 0.00 0.00 0.00 91 1014.0